User: anonymous   Login
Location: Brookview Estates
(36.0476°N, 86.6931°W)
Time: 17:42:40
(UTC+00:00)
Language:

Timation 2 Rocket - Orbit

View from above orbital plane
View from above orbital plane
View from above satellite
View from above satellite

Ground track
Ground track

The orbit data is extracted from the following two-line orbital elements,

1  4159U 69082AB  20184.84088799 -.00000007 +00000-0 +44343-4 0  9992
2  4159 069.9626 027.9142 0114248 147.6401 213.1768 13.72441656540160
Epoch (UTC): 02 July 2020 20:10:52
Eccentricity: 0.0114248
inclination: 69.9626°
perigee height: 906 km
apogee height: 1075 km
right ascension of ascending node: 27.9142°
argument of perigee: 147.6401°
revolutions per day: 13.72441656
mean anomaly at epoch: 213.1768°
orbit number at epoch: 54016

The dashed part of the orbit path shows where the satellite is in the earth's shadow,  

DLR